STARLINK-5371 (55489 NORAD) Tracking and Keplerian Element Data

This shows tracking and keplerian element data for the satellite.

Feedback or suggestion? Click here.




ElementValue
Catalog55489
NameSTARLINK-5371
Epoch Orbit130
Epoch Day84.91667824
Epoch Year2023
RAAN86.3723
Inclination43
Eccentricity0.0001073
Argument of Perigee255.1013
Mean Anonmoly175.9064
Mean Motion15.04460346
Decay Rate0.00035237
L11 55489U 23015AS 23084.91667824 .00035237 00000+0 24802-2 0 9999
L22 55489 43.0000 86.3723 0001073 255.1013 175.9064 15.04460346 1306



Live tracking and technical data element details for STARLINK-5371 (NORAD 55489). STARLINK-5371 can be tracked NOW for your location showing map with azimuth and elevation plus other details from your city location.







IsCatalogInMostPopularTable: catalog: 55489, numindb: -1

Insert: records affected: 1


GetName: 55489 STARLINK-5371

Hit Count: inserted at: Tue, 28 Mar 2023 02:37:19 GMT